Brainerd, MN

11:41 AM CDT on June 23, 2017 (GMT -0500)
Brainerd-Crow Wing County Regional

Weather History for KBRD - September, 2012

Change the Weather History Date:

Friday, September 28, 2012

  Actual Average Record
Temperature  
Mean Temperature 59 °F -  
Max Temperature 82 °F 62 °F 89 °F (1956)
Min Temperature 37 °F 37 °F 21 °F (1976)
Degree Days  
Heating Degree Days 6    
Growing Degree Days 9 (Base 50)    
Moisture  
Dew Point 37 °F    
Average Humidity 54    
Maximum Humidity 89    
Minimum Humidity 18    
Precipitation  
Precipitation 0.00 in - - ()
Sea Level Pressure  
Sea Level Pressure 30.15 in    
Wind  
Wind Speed 3 mph (SW)    
Max Wind Speed 13 mph    
Max Gust Speed 17 mph    
Visibility 10 miles    
Events      
Averages and records for this station are not official NWS values.
T = Trace of Precipitation, MM = Missing Value Source: NWS Daily Summary

Daily Weather History Graph

Daily Weather History Graph

Search for Another Location

Airport or City:

Trip Planner

Search our weather history database for the weather conditions in past years. The results will help you decide how hot, cold, wet, or windy it might be!

Date:

Astronomy

Sep. 28, 2012 Rise Set
Actual Time 7:11 AM CDT 7:01 PM CDT
Civil Twilight 6:41 AM CDT 7:31 PM CDT
Nautical Twilight 6:06 AM CDT 8:06 PM CDT
Astronomical Twilight 5:31 AM CDT 8:41 PM CDT
Moon 6:04 PM CDT (9/28) 5:40 AM CDT (9/28)
Length of Visible Light 12h 49m
Length of Day
11h 49m
Waxing Gibbous, 98% of the Moon is Illuminated
Sep 28
Waxing Gibbous
Sep 29
Full
Oct 8
Last Quarter
Oct 15
New
Oct 21
First Quarter

Hourly Weather History & Observations

Time (CDT) Temp. Dew Point Humidity Pressure Visibility Wind Dir Wind Speed Gust Speed Precip Events Conditions
12:53 AM 45.0 °F 37.9 °F 76% 30.20 in 10.0 mi Calm Calm - N/A   Clear
1:53 AM 41.0 °F 36.0 °F 82% 30.20 in 10.0 mi Calm Calm - N/A   Clear
2:53 AM 39.0 °F 35.1 °F 86% 30.20 in 10.0 mi Calm Calm - N/A   Clear
3:53 AM 39.0 °F 35.1 °F 86% 30.20 in 10.0 mi Calm Calm - N/A   Clear
4:53 AM 39.9 °F 36.0 °F 86% 30.21 in 10.0 mi Calm Calm - N/A   Clear
5:53 AM 39.0 °F 35.1 °F 86% 30.21 in 9.0 mi Calm Calm - N/A   Clear
6:53 AM 37.0 °F 34.0 °F 89% 30.22 in 10.0 mi Calm Calm - N/A   Clear
7:53 AM 37.9 °F 34.0 °F 86% 30.22 in 10.0 mi Calm Calm - N/A   Clear
8:53 AM 48.0 °F 37.0 °F 66% 30.22 in 10.0 mi Calm Calm - N/A   Clear
9:53 AM 57.9 °F 37.0 °F 46% 30.22 in 10.0 mi SSW 8.1 mph - N/A   Clear
10:53 AM 64.9 °F 37.0 °F 36% 30.21 in 10.0 mi SSW 8.1 mph - N/A   Clear
11:53 AM 69.1 °F 35.1 °F 29% 30.19 in 10.0 mi South 11.5 mph - N/A   Clear
12:53 PM 72.0 °F 32.0 °F 23% 30.17 in 10.0 mi SSW 10.4 mph - N/A   Clear
1:53 PM 77.0 °F 32.0 °F 19% 30.13 in 10.0 mi SSW 10.4 mph - N/A   Clear
2:53 PM 78.1 °F 34.0 °F 20% 30.12 in 10.0 mi SSW 12.7 mph 17.3 mph N/A   Clear
3:53 PM 81.0 °F 34.0 °F 18% 30.09 in 10.0 mi WSW 10.4 mph - N/A   Clear
4:53 PM 81.0 °F 36.0 °F 20% 30.08 in 10.0 mi West 9.2 mph - N/A   Clear
5:53 PM 79.0 °F 37.9 °F 23% 30.08 in 10.0 mi West 5.8 mph - N/A   Clear
6:53 PM 73.0 °F 39.9 °F 30% 30.08 in 10.0 mi WSW 5.8 mph - N/A   Clear
7:53 PM 70.0 °F 39.9 °F 33% 30.08 in 10.0 mi WNW 8.1 mph - N/A   Clear
8:53 PM 64.0 °F 42.1 °F 45% 30.09 in 10.0 mi WNW 4.6 mph - N/A   Clear
9:53 PM 57.0 °F 46.0 °F 67% 30.10 in 10.0 mi Calm Calm - N/A   Clear
10:53 PM 53.1 °F 43.0 °F 69% 30.10 in 10.0 mi SW 3.5 mph - N/A   Clear
11:53 PM 52.0 °F 45.0 °F 77% 30.10 in 10.0 mi Calm Calm - N/A   Clear